Flag for U.S.A. Weather past 2 weeks in Oberlin, Ohio, U.S.A.

Now
33 °F

Overcast.


Feels Like: 25 °F
Forecast: 16 / 34 °F
Wind: 10 mph from West

Location: Lorain County Regional Airport

Current Time: Mar 4, 2015 at 3:50:32 PM

Latest Report: Mar 4, 2015 at 2:53 PM


Visibility: 8 mi

Pressure: 29.97 "Hg

Humidity: 70%

Dew point: 24 °F

Location of OberlinLocation

Historic Weather in Oberlin — Graph

°F

Oberlin temperature yesterday

Maximum temperature yesterday: 41 °F (at 4:53 PM)
Minimum temperature yesterday: 18 °F (at 12:53 AM)
Average temperature yesterday: 29 °F

Past Weeks' High & Low Weather Summary

 TemperatureHumidityPressure
High41 °F (Mar 3, 4:53 PM)96% (Feb 21, 1:53 PM)30.85 "Hg (Feb 21, 1:53 PM)
Low-13 °F (Feb 20, 7:53 AM)34% (Feb 28, 3:53 PM)29.66 "Hg (Mar 3, 5:53 PM)
Average13 °F72%30.23 "Hg
* Reported Feb 17 1:53 PM — Mar 4 1:53 PM, Oberlin, Weather by CustomWeather, © 2015

Note: Actual official high and low records may vary slightly from our data, if they occured in-between our weather recording intervals... More about our weather records

Advertising

Oberlin weather history for previous 24 hours

 ConditionsComfort  
Time TempWeatherWind HumidityBarometerVisibility
1:53 PM
Wed, Mar 4
33 °FOvercast.8 mph66%29.98 "Hg9 mi
12:53 PM33 °FOvercast.9 mph70%29.99 "Hg9 mi
11:53 AM32 °FOvercast.6 mph69%29.96 "Hg9 mi
10:53 AM32 °FOvercast.7 mph73%29.98 "Hg9 mi
9:53 AM32 °FOvercast.8 mph73%29.98 "Hg10 mi
8:53 AM31 °FOvercast.9 mph79%29.98 "Hg10 mi
7:53 AM32 °FOvercast.8 mph75%29.93 "Hg10 mi
6:53 AM33 °FMostly cloudy.8 mph85%29.90 "Hg9 mi
5:53 AM33 °FOvercast.7 mph88%29.88 "Hg8 mi
4:53 AM34 °FOvercast.7 mph85%29.86 "Hg9 mi
3:53 AM34 °FOvercast.7 mph85%29.84 "Hg9 mi
2:53 AM34 °FOvercast.12 mph85%29.86 "Hg9 mi
1:53 AM34 °FMostly cloudy.10 mph88%29.85 "Hg8 mi
12:53 AM35 °FFog.9 mph88%29.83 "Hg6 mi
11:53 PM
Tue, Mar 3
35 °FOvercast.15 mph88%29.81 "Hg9 mi
10:53 PM36 °FOvercast.10 mph89%29.79 "Hg10 mi
9:53 PM37 °FOvercast.21 mph86%29.77 "Hg10 mi
8:53 PM38 °FOvercast.18 mph90%29.74 "Hg10 mi
7:53 PM39 °FOvercast.15 mph89%29.72 "Hg9 mi
6:53 PM39 °FFog.20 mph93%29.70 "Hg6 mi
5:53 PM40 °FLight rain. Overcast.26 mph89%29.66 "Hg10 mi
4:53 PM41 °FOvercast.24 mph86%29.67 "Hg10 mi
3:53 PM34 °FLight rain. Fog.16 mph92%29.68 "Hg3 mi
Weather by CustomWeather, © 2015

See weather overviewHow to use our weather pages